FW2530 Weather Reports


Display with metric or nautical units.
time (UTC)temp
F
wind
direction
speed
MPH
gust
MPH
rain 1hr
in
rain 24hr
in
rain mn
in
humidity
%
barometer
mb
20260503191007 59 360 6.0 19.0 0.00 0.00 0.00 53 1008.8
20260503190506 59 360 7.0 17.0 0.00 0.00 0.00 53 1009.0
20260503190028 59 360 8.0 20.0 0.00 0.00 0.00 55 1009.0
20260503185506 59 360 9.0 27.0 0.00 0.00 0.00 33 1009.2
20260503185006 59 360 9.0 23.0 0.00 0.00 0.00 33 1009.3
20260503184506 58 360 10.0 20.0 0.00 0.00 0.00 56 1009.4
20260503184007 58 360 9.0 28.0 0.00 0.00 0.00 56 1009.4
20260503183506 59 360 8.0 25.0 0.00 0.00 0.00 56 1009.5
20260503183006 59 360 8.0 25.0 0.00 0.00 0.00 56 1009.5
20260503182507 59 360 7.0 16.0 0.00 0.00 0.00 56 1009.5
20260503182006 59 360 8.0 21.0 0.00 0.00 0.00 55 1009.4
20260503181507 60 360 7.0 27.0 0.00 0.00 0.00 53 1009.4
20260503181006 60 360 5.0 16.0 0.00 0.00 0.00 51 1009.4
20260503180506 60 360 6.0 15.0 0.00 0.00 0.00 52 1009.4
20260503180006 60 360 7.0 19.0 0.00 0.00 0.00 51 1009.5
20260503175506 61 360 7.0 17.0 0.00 0.00 0.00 52 1009.4
20260503175006 61 360 7.0 17.0 0.00 0.00 0.00 49 1009.5
20260503174506 62 354 8.0 19.0 0.00 0.00 0.00 28 1009.5
20260503174028 62 330 8.0 19.0 0.00 0.00 0.00 49 1009.4
20260503173528 63 292 6.0 13.0 0.00 0.00 0.00 48 1009.4
20260503173027 63 289 6.0 17.0 0.00 0.00 0.00 28 1009.4
20260503172506 63 283 8.0 15.0 0.00 0.00 0.00 30 1009.4
20260503172006 63 279 9.0 23.0 0.00 0.00 0.00 27 1009.6
20260503171506 63 290 6.0 15.0 0.00 0.00 0.00 51 1009.6
20260503171006 63 292 6.0 13.0 0.00 0.00 0.00 30 1009.7
20260503170506 63 284 6.0 20.0 0.00 0.00 0.00 49 1009.8
20260503151006 56 351 5.0 16.0 0.00 0.00 0.00 59 1011.1
20260503150507 56 350 4.0 15.0 0.00 0.00 0.00 59 1011.1
20260503131006 46 279 3.0 8.0 0.00 0.00 0.00 70 1012.2
20260503130527 45 302 2.0 7.0 0.00 0.00 0.00 72 1012.2
20260503110527 32 0 0.0 0.0 0.00 0.00 0.00 82 1012.7
20260503090506 27 9 0.0 3.0 0.00 0.00 0.00 84 1012.8
20260503081506 27 0 0.0 0.0 0.00 0.00 0.00 84 1012.8
20260503081006 27 0 0.0 0.0 0.00 0.00 0.00 84 1012.9
20260503080506 27 0 0.0 0.0 0.00 0.00 0.00 84 1012.9
20260503072527 27 0 0.0 0.0 0.00 0.00 0.00 84 1012.8
20260503072028 28 0 0.0 0.0 0.00 0.00 0.00 84 1012.8
20260503071527 28 0 0.0 0.0 0.00 0.00 0.00 84 1012.7
20260503071027 28 0 0.0 0.0 0.00 0.00 0.00 85 1012.7
20260503070506 28 0 0.0 0.0 0.00 0.00 0.00 85 1012.7
20260503055006 28 0 0.0 0.0 0.00 0.00 0.00 84 1013.5
20260503054506 28 0 0.0 0.0 0.00 0.00 0.00 84 1013.5
20260503054006 28 0 0.0 0.0 0.00 0.00 0.00 83 1013.6
20260503053506 28 0 0.0 0.0 0.00 0.00 0.00 83 1013.6
20260503053006 28 0 0.0 0.0 0.00 0.00 0.00 83 1013.7
20260503052506 29 0 0.0 0.0 0.00 0.00 0.00 83 1013.8
20260503052006 29 0 0.0 0.0 0.00 0.00 0.00 83 1013.8
20260503051506 29 0 0.0 0.0 0.00 0.00 0.00 83 1013.9
20260503051006 29 0 0.0 0.0 0.00 0.00 0.00 83 1013.9
20260503050506 29 0 0.0 0.0 0.00 0.00 0.00 83 1013.9
20260503050006 29 0 0.0 0.0 0.00 0.00 0.00 82 1014.0
20260503045506 29 0 0.0 0.0 0.00 0.00 0.00 82 1013.9
20260503045006 29 0 0.0 0.0 0.00 0.00 0.00 82 1014.0
20260503044506 29 0 0.0 0.0 0.00 0.00 0.00 81 1014.1
20260503044027 29 0 0.0 0.0 0.00 0.00 0.00 81 1014.1
20260503043506 30 0 0.0 0.0 0.00 0.00 0.00 81 1014.1
20260503043027 30 0 0.0 0.0 0.00 0.00 0.00 81 1014.1
20260503042506 30 0 0.0 0.0 0.00 0.00 0.00 80 1014.2
20260503042006 30 0 0.0 0.0 0.00 0.00 0.00 80 1014.2
20260503041506 30 0 0.0 0.0 0.00 0.00 0.00 80 1014.2
20260503041027 30 0 0.0 0.0 0.00 0.00 0.00 79 1014.3
20260503040506 30 0 0.0 0.0 0.00 0.00 0.00 79 1014.2
20260503040007 30 0 0.0 0.0 0.00 0.00 0.00 79 1014.4
20260503035506 30 0 0.0 0.0 0.00 0.00 0.00 79 1014.4
20260503035027 31 0 0.0 0.0 0.00 0.00 0.00 78 1014.4
20260503034506 31 0 0.0 0.0 0.00 0.00 0.00 78 1014.4
20260503034006 31 0 0.0 0.0 0.00 0.00 0.00 77 1014.4
20260503033506 31 0 0.0 0.0 0.00 0.00 0.00 77 1014.5
20260503033006 32 0 0.0 0.0 0.00 0.00 0.00 77 1014.5
20260503032506 32 0 0.0 0.0 0.00 0.00 0.00 75 1014.5
20260503032006 32 0 0.0 0.0 0.00 0.00 0.00 75 1014.5
20260503031506 32 0 0.0 0.0 0.00 0.00 0.00 75 1014.6
20260503031006 32 0 0.0 0.0 0.00 0.00 0.00 74 1014.6
20260503030506 33 0 0.0 0.0 0.00 0.00 0.00 74 1014.6
20260503030006 33 0 0.0 0.0 0.00 0.00 0.00 73 1014.7
20260503025506 33 0 0.0 0.0 0.00 0.00 0.00 72 1014.6
20260503025005 33 0 0.0 0.0 0.00 0.00 0.00 72 1014.7
20260503024506 33 0 0.0 0.0 0.00 0.00 0.00 71 1014.9
20260503024006 34 0 0.0 0.0 0.00 0.00 0.00 71 1014.8
20260503023506 34 0 0.0 0.0 0.00 0.00 0.00 70 1014.9
20260503023005 34 0 0.0 0.0 0.00 0.00 0.00 70 1015.0
20260503022505 34 0 0.0 0.0 0.00 0.00 0.00 70 1015.0
20260503022027 34 0 0.0 0.0 0.00 0.00 0.00 70 1015.0
20260503021506 35 0 0.0 0.0 0.00 0.00 0.00 70 1015.0
20260503021027 35 0 0.0 0.0 0.00 0.00 0.00 70 1015.0
20260503020506 36 0 0.0 0.0 0.00 0.00 0.00 70 1015.0
20260503020006 36 0 0.0 0.0 0.00 0.00 0.00 69 1015.0
20260503015506 36 0 0.0 0.0 0.00 0.00 0.00 69 1015.0
20260503015006 36 0 0.0 0.0 0.00 0.00 0.00 68 1015.0
20260503014506 37 0 0.0 0.0 0.00 0.00 0.00 68 1015.1
20260503014006 37 0 0.0 0.0 0.00 0.00 0.00 68 1015.0
20260503013506 38 0 0.0 0.0 0.00 0.00 0.00 67 1015.0
20260503013006 38 0 0.0 0.0 0.00 0.00 0.00 66 1014.9
20260503012505 38 0 0.0 0.0 0.00 0.00 0.00 64 1015.0
20260503012005 39 0 0.0 0.0 0.00 0.00 0.00 64 1014.9
20260503011506 39 0 0.0 0.0 0.00 0.00 0.00 63 1014.8
20260503011005 40 0 0.0 0.0 0.00 0.00 0.00 62 1014.9
20260503010506 40 0 0.0 0.0 0.00 0.00 0.00 62 1014.9
20260503010006 41 0 0.0 0.0 0.00 0.00 0.00 61 1014.9
20260503005505 41 0 0.0 0.0 0.00 0.00 0.00 60 1014.9
20260503005006 41 0 0.0 0.0 0.00 0.00 0.00 59 1014.9
20260503004527 42 0 0.0 0.0 0.00 0.00 0.00 59 1014.9
20260503004027 42 0 0.0 0.0 0.00 0.00 0.00 58 1014.9
20260503003527 42 9 0.0 1.0 0.00 0.00 0.00 58 1014.8
20260503003006 43 9 0.0 1.0 0.00 0.00 0.00 57 1014.8
20260503002505 43 9 0.0 0.0 0.00 0.00 0.00 57 1014.8
20260503002027 43 9 0.0 1.0 0.00 0.00 0.00 57 1014.8
20260503001505 43 9 1.0 3.0 0.00 0.00 0.00 56 1014.6
20260503001027 44 9 1.0 4.0 0.00 0.00 0.00 56 1014.6
20260503000505 44 9 1.0 4.0 0.00 0.00 0.00 56 1014.6
20260503000027 44 9 1.0 4.0 0.00 0.00 0.00 55 1014.6
20260502235506 44 9 1.0 4.0 0.00 0.00 0.00 55 1014.6
20260502235005 44 5 2.0 5.0 0.00 0.00 0.00 53 1014.5
20260502234506 44 345 3.0 5.0 0.00 0.00 0.00 53 1014.6
20260502234005 44 344 3.0 11.0 0.00 0.00 0.00 52 1014.7
20260502233506 45 351 3.0 8.0 0.00 0.00 0.00 51 1014.6
20260502233006 45 350 3.0 5.0 0.00 0.00 0.00 51 1014.7
20260502232505 45 2 3.0 11.0 0.00 0.00 0.00 50 1014.8
20260502232005 45 15 4.0 5.0 0.00 0.00 0.00 50 1014.8
20260502231526 46 5 5.0 11.0 0.00 0.00 0.00 49 1014.8
20260502231027 46 360 5.0 12.0 0.00 0.00 0.00 50 1014.8
20260502230505 46 1 4.0 11.0 0.00 0.00 0.00 49 1014.8
20260502230027 47 358 3.0 13.0 0.00 0.00 0.00 49 1014.8
20260502225526 47 356 4.0 9.0 0.00 0.00 0.00 48 1014.8
20260502225006 47 350 5.0 12.0 0.00 0.00 0.00 48 1014.8
20260502224505 47 360 4.0 15.0 0.00 0.00 0.00 48 1014.8
20260502224005 48 360 5.0 13.0 0.00 0.00 0.00 48 1014.8
20260502223505 48 355 5.0 15.0 0.00 0.00 0.00 47 1014.8
20260502223005 48 7 5.0 12.0 0.00 0.00 0.00 48 1014.8
20260502222505 48 4 5.0 12.0 0.00 0.00 0.00 47 1014.8
20260502222005 48 356 5.0 12.0 0.00 0.00 0.00 48 1014.8
20260502221505 48 345 5.0 11.0 0.00 0.00 0.00 48 1014.9
20260502221005 47 337 5.0 13.0 0.00 0.00 0.00 48 1014.9
20260502220505 47 355 5.0 11.0 0.00 0.00 0.00 49 1014.8
20260502220005 47 356 5.0 13.0 0.00 0.00 0.00 47 1014.9
20260502215505 48 341 6.0 12.0 0.00 0.00 0.00 47 1014.8
20260502215006 48 348 6.0 15.0 0.00 0.00 0.00 48 1014.7
20260502214505 47 352 5.0 15.0 0.00 0.00 0.00 49 1014.8
20260502214026 47 346 6.0 15.0 0.00 0.00 0.00 48 1014.8
20260502213506 47 338 5.0 12.0 0.00 0.00 0.00 48 1014.8
20260502213005 47 337 4.0 13.0 0.00 0.00 0.00 48 1014.8
20260502212506 47 350 4.0 12.0 0.00 0.00 0.00 48 1014.8
20260502212027 47 5 4.0 12.0 0.00 0.00 0.00 47 1014.8
20260502211505 47 356 5.0 13.0 0.00 0.00 0.00 47 1014.9
20260502211006 47 344 6.0 17.0 0.00 0.00 0.00 46 1014.8
20260502210505 48 339 5.0 12.0 0.00 0.00 0.00 47 1014.7
20260502210005 48 334 5.0 11.0 0.00 0.00 0.00 48 1014.8
20260502205505 48 340 6.0 15.0 0.00 0.00 0.00 50 1014.7
20260502205005 47 359 5.0 12.0 0.00 0.00 0.00 51 1014.9
20260502204505 47 349 5.0 12.0 0.00 0.00 0.00 49 1014.9
20260502204005 47 345 5.0 15.0 0.00 0.00 0.00 50 1015.0
20260502203526 47 338 6.0 15.0 0.00 0.00 0.00 49 1015.0
20260502203005 48 334 6.0 15.0 0.00 0.00 0.00 48 1014.9
20260502202505 48 347 6.0 15.0 0.00 0.00 0.00 49 1015.0
20260502202026 48 6 5.0 12.0 0.00 0.00 0.00 50 1015.1
20260502201505 47 1 4.0 11.0 0.00 0.00 0.00 51 1015.0
20260502201005 47 337 5.0 11.0 0.00 0.00 0.00 52 1015.1
20260502200505 47 347 6.0 11.0 0.00 0.00 0.00 50 1015.1
20260502200005 48 3 6.0 17.0 0.00 0.00 0.00 49 1015.2
20260502195505 48 5 6.0 12.0 0.00 0.00 0.00 49 1015.2
20260502195027 48 355 6.0 20.0 0.00 0.00 0.00 49 1015.2
20260502194505 48 341 5.0 11.0 0.00 0.00 0.00 49 1015.2
20260502194005 48 341 6.0 16.0 0.00 0.00 0.00 28 1015.3
20260502193505 49 353 6.0 13.0 0.00 0.00 0.00 48 1015.3
20260502193005 50 3 5.0 16.0 0.00 0.00 0.00 48 1015.3
20260502192505 50 4 4.0 11.0 0.00 0.00 0.00 49 1015.3
20260502192005 50 5 4.0 9.0 0.00 0.00 0.00 51 1015.3
20260502191506 49 344 6.0 13.0 0.00 0.00 0.00 51 1015.4